Погода в Гнивани

Украина / Винницкая область     49°05′36″N   28°20′16″E
темп.,
°C
ветер,
м/с
пор.,
м/с
влажн.,
%
обл.,
%
осадки,
мм/ч
давл.,
гПа
погр.,
м
17 августа, ср
ср1700:00+17ююв229311 0.0 100824
03:00+16ююв11967 0.0 100813
06:00+16в00968 0.1 100811
09:00+20ю128068 0.1 1008358
12:00+23юз227186 3.4 1009990
15:00+24зюз226738 8.4 1008919
18:00+23ссз337272 5.0 1008591
21:00+19ссв229164 7.7 100934
18 августа, чт
чт1800:00+18с349637 0.1 100977
03:00+17с369826 0.1 1009144
06:00+17ссв349939 0.0 101099
09:00+20св348512 0.7 1011395
12:00+25ссв446167 0.0 1011966
15:00+26с345440 0.0 1011714
18:00+28ссв35455 0.0 10111459
21:00+22ссв22630 0.0 101112
19 августа, пт
пт1900:00+20с22650 0.0 101220
03:00+18с34690 0.0 101260
06:00+17с35750 0.0 101285
09:00+22ссв46590 0.0 1013378
12:00+26св44460 0.0 10121088
15:00+29св44410 0.0 10121607
18:00+28св44449 0.0 10121723
21:00+22св45640 0.0 101273
20 августа, сб
сб2000:00+20св36730 0.0 1013111
03:00+19всв22820 0.0 101311
06:00+18св22860 0.0 101323
09:00+23всв346529 0.0 1013382
12:00+28вюв34470 0.0 10131530
15:00+31в33365 0.0 10112265
18:00+31всв55366 0.0 10101833
21:00+23всв410592 0.0 1012203
21 августа, вс
вс2100:00+22в4116289 0.0 1012214
03:00+22в395518 0.0 1011219
06:00+20вюв36625 0.0 1011119
09:00+26вюв45495 0.0 1011356
12:00+31вюв44375 0.0 10111777
15:00+31в2334100 0.1 10101449
18:00+26вюв4853100 0.2 1010242
21:00+24в355753 0.7 101184